Weather History for KRQB - September, 2013

Change the Weather History Date:

Sunday, September 8, 2013

  Actual Average Record
Temperature  
Mean Temperature 65 °F -  
Max Temperature 73 °F 75 °F 91 °F (1978)
Min Temperature 57 °F 50 °F 35 °F (1986)
Growing Degree Days 15 (Base 50)    
Moisture  
Dew Point 56 °F    
Average Humidity 70    
Maximum Humidity 100    
Minimum Humidity 41    
Precipitation  
Precipitation 0.00 in - - ()
Sea Level Pressure  
Sea Level Pressure 30.07 in    
Wind  
Wind Speed 6 mph (East)    
Max Wind Speed 15 mph    
Max Gust Speed 24 mph    
Visibility 10 miles    
Events      
Averages and records for this station are not official NWS values.
T = Trace of Precipitation, MM = Missing Value Source: NWS Daily Summary

Daily Weather History Graph

Daily Weather History Graph

Search for Another Location

Airport or City:

Trip Planner

Search our weather history database for the weather conditions in past years. The results will help you decide how hot, cold, wet, or windy it might be!

Date:

Astronomy

Sep. 08, 2013 Rise Set
Actual Time 7:13 AM EDT 8:04 PM EDT
Civil Twilight 6:44 AM EDT 8:33 PM EDT
Nautical Twilight 6:09 AM EDT 9:08 PM EDT
Astronomical Twilight 5:33 AM EDT 9:44 PM EDT
Moon 10:38 AM EDT (9/8) 9:30 PM EDT (9/8)
Length of Visible Light 13h 49m
Length of Day
12h 50m
Waxing Crescent, 11% of the Moon is Illuminated
Sep 8
Waxing Crescent
Sep 12
First Quarter
Sep 19
Full
Sep 26
Last Quarter
Oct 4
New

Hourly Weather History & Observations

Time (EDT) Temp. Dew Point Humidity Pressure Visibility Wind Dir Wind Speed Gust Speed Precip Events Conditions
12:15 AM 66.6 °F 66.6 °F 100% 29.98 in 7.0 mi NW 4.6 mph - N/A   Clear
12:35 AM 66.9 °F 66.9 °F 100% 29.99 in 7.0 mi NW 5.8 mph - N/A   Clear
12:55 AM 66.2 °F 66.2 °F 100% 29.99 in 7.0 mi NW 4.6 mph - N/A   Clear
1:15 AM 66.2 °F 66.2 °F 100% 30.00 in 7.0 mi Calm Calm - N/A   Mostly Cloudy
1:35 AM 66.7 °F 66.7 °F 100% 30.00 in 7.0 mi Calm Calm - N/A   Scattered Clouds
1:55 AM 65.3 °F 65.3 °F 100% 30.00 in 4.0 mi Calm Calm - N/A   Scattered Clouds
2:15 AM 66.2 °F 66.2 °F 100% 30.00 in 7.0 mi Calm Calm - N/A   Mostly Cloudy
2:35 AM 65.5 °F 65.5 °F 100% 30.00 in 7.0 mi Calm Calm - N/A   Mostly Cloudy
2:55 AM 66.9 °F 66.9 °F 100% 30.00 in 10.0 mi Calm Calm - N/A   Overcast
3:15 AM 67.5 °F 67.3 °F 99% 30.01 in 10.0 mi NW 4.6 mph - N/A   Overcast
3:34 AM 67.5 °F 67.5 °F 100% 30.01 in 10.0 mi NW 4.6 mph - N/A   Overcast
3:55 AM 68.0 °F 67.8 °F 99% 30.01 in 10.0 mi NNW 4.6 mph - N/A   Overcast
4:15 AM 68.0 °F 67.6 °F 99% 30.01 in 10.0 mi North 4.6 mph - N/A   Overcast
4:34 AM 67.6 °F 67.3 °F 99% 30.02 in 10.0 mi NNE 3.5 mph - N/A   Mostly Cloudy
4:55 AM 67.3 °F 67.1 °F 99% 30.03 in 10.0 mi NNW 3.5 mph - N/A   Mostly Cloudy
5:15 AM 66.6 °F 66.4 °F 99% 30.04 in 10.0 mi ENE 4.6 mph - N/A   Scattered Clouds
5:34 AM 66.2 °F 66.2 °F 100% 30.03 in 10.0 mi NNW 4.6 mph - N/A   Scattered Clouds
5:55 AM 65.5 °F 65.5 °F 100% 30.04 in 10.0 mi East 3.5 mph - N/A   Mostly Cloudy
6:15 AM 66.0 °F 65.3 °F 98% 30.05 in 10.0 mi NE 6.9 mph - N/A   Overcast
6:34 AM 65.5 °F 63.9 °F 94% 30.06 in 10.0 mi NE 4.6 mph 16.1 mph N/A   Overcast
6:55 AM 65.3 °F 63.9 °F 95% 30.06 in 10.0 mi NE 6.9 mph - N/A   Overcast
7:15 AM 64.4 °F 62.1 °F 92% 30.08 in 10.0 mi NE 8.1 mph 16.1 mph N/A   Overcast
7:35 AM 63.5 °F 57.2 °F 80% 30.09 in 10.0 mi ENE 8.1 mph - N/A   Overcast
7:55 AM 63.5 °F 55.4 °F 75% 30.10 in 10.0 mi ENE 10.4 mph - N/A   Overcast
8:15 AM 63.5 °F 54.3 °F 72% 30.10 in 10.0 mi ENE 11.5 mph 17.3 mph N/A   Overcast
8:35 AM 63.3 °F 53.6 °F 71% 30.10 in 10.0 mi ENE 8.1 mph - N/A   Overcast
8:55 AM 64.2 °F 53.2 °F 67% 30.11 in 10.0 mi East 10.4 mph 16.1 mph N/A   Mostly Cloudy
9:14 AM 64.4 °F 52.9 °F 66% 30.11 in 10.0 mi East 9.2 mph 21.9 mph N/A   Mostly Cloudy
9:35 AM 65.5 °F 53.4 °F 65% 30.11 in 10.0 mi East 9.2 mph - N/A   Scattered Clouds
9:55 AM 65.7 °F 52.9 °F 63% 30.11 in 10.0 mi ENE 9.2 mph - N/A   Clear
10:14 AM 66.2 °F 52.2 °F 61% 30.12 in 10.0 mi ENE 12.7 mph 24.2 mph N/A   Clear
10:35 AM 68.0 °F 52.5 °F 58% 30.12 in 10.0 mi East 10.4 mph - N/A   Clear
10:55 AM 68.5 °F 53.2 °F 58% 30.12 in 10.0 mi East 12.7 mph - N/A   Scattered Clouds
11:14 AM 68.7 °F 54.0 °F 59% 30.12 in 10.0 mi East 11.5 mph 17.3 mph N/A   Mostly Cloudy
11:35 AM 68.4 °F 53.2 °F 58% 30.12 in 10.0 mi East 13.8 mph 21.9 mph N/A   Mostly Cloudy
11:55 AM 68.0 °F 53.1 °F 59% 30.13 in 10.0 mi East 13.8 mph 20.7 mph N/A   Scattered Clouds
12:14 PM 70.3 °F 52.9 °F 54% 30.13 in 10.0 mi East 10.4 mph 24.2 mph N/A   Mostly Cloudy
12:35 PM 69.6 °F 52.3 °F 54% 30.13 in 10.0 mi ENE 12.7 mph - N/A   Scattered Clouds
12:55 PM 70.9 °F 52.3 °F 52% 30.13 in 10.0 mi East 13.8 mph 23.0 mph N/A   Mostly Cloudy
1:14 PM 70.3 °F 52.0 °F 52% 30.12 in 10.0 mi ESE 11.5 mph 21.9 mph N/A   Overcast
1:35 PM 72.1 °F 52.0 °F 49% 30.12 in 10.0 mi SE 15.0 mph 18.4 mph N/A   Mostly Cloudy
1:55 PM 72.7 °F 51.8 °F 48% 30.12 in 10.0 mi East 11.5 mph 23.0 mph N/A   Mostly Cloudy
2:14 PM 72.9 °F 51.8 °F 47% 30.11 in 10.0 mi ENE 6.9 mph 18.4 mph N/A   Scattered Clouds
2:35 PM 71.8 °F 50.9 °F 48% 30.10 in 10.0 mi ESE 13.8 mph 23.0 mph N/A   Scattered Clouds
2:55 PM 73.2 °F 51.4 °F 46% 30.10 in 10.0 mi ESE 8.1 mph 24.2 mph N/A   Clear
3:14 PM 72.5 °F 50.7 °F 46% 30.09 in 10.0 mi SSE 8.1 mph 18.4 mph N/A   Clear
3:35 PM 73.2 °F 49.6 °F 43% 30.09 in 10.0 mi SE 13.8 mph 19.6 mph N/A   Clear
3:55 PM 73.4 °F 50.0 °F 44% 30.08 in 10.0 mi SE 10.4 mph 20.7 mph N/A   Clear
4:15 PM 73.0 °F 48.2 °F 41% 30.08 in 10.0 mi ESE 15.0 mph 23.0 mph N/A   Clear
4:35 PM 72.9 °F 48.2 °F 42% 30.08 in 10.0 mi ESE 8.1 mph - N/A   Clear
4:54 PM 72.1 °F 49.5 °F 45% 30.09 in 10.0 mi East 8.1 mph - N/A   Clear
5:15 PM 72.3 °F 49.6 °F 45% 30.09 in 10.0 mi East 9.2 mph - N/A   Clear
5:35 PM 71.8 °F 49.1 °F 45% 30.08 in 10.0 mi East 10.4 mph 17.3 mph N/A   Clear
5:54 PM 71.8 °F 49.1 °F 45% 30.07 in 10.0 mi SE 6.9 mph 19.6 mph N/A   Clear
6:15 PM 72.0 °F 49.1 °F 44% 30.07 in 10.0 mi SE 8.1 mph 16.1 mph N/A   Clear
6:35 PM 72.0 °F 49.8 °F 46% 30.06 in 10.0 mi East 12.7 mph 17.3 mph N/A   Clear
6:54 PM 70.2 °F 50.2 °F 49% 30.06 in 10.0 mi ESE 10.4 mph 20.7 mph N/A   Clear
7:15 PM 70.0 °F 49.3 °F 48% 30.06 in 10.0 mi SE 11.5 mph 21.9 mph N/A   Clear
7:35 PM 68.5 °F 49.5 °F 50% 30.05 in 10.0 mi SE 6.9 mph 20.7 mph N/A   Clear
7:54 PM 66.9 °F 49.1 °F 53% 30.05 in 10.0 mi SE 5.8 mph - N/A   Clear
8:15 PM 65.1 °F 49.3 °F 56% 30.05 in 10.0 mi East 4.6 mph - N/A   Clear
8:35 PM 63.7 °F 50.2 °F 61% 30.05 in 10.0 mi ESE 5.8 mph - N/A   Clear
8:54 PM 62.6 °F 50.0 °F 63% 30.06 in 10.0 mi ESE 5.8 mph - N/A   Clear
9:15 PM 61.3 °F 50.4 °F 67% 30.06 in 10.0 mi East 11.5 mph - N/A   Clear
9:35 PM 60.6 °F 50.4 °F 69% 30.06 in 10.0 mi East 8.1 mph - N/A   Clear
9:54 PM 60.3 °F 50.7 °F 71% 30.06 in 10.0 mi ESE 9.2 mph - N/A   Clear
10:15 PM 59.9 °F 50.2 °F 70% 30.06 in 10.0 mi East 10.4 mph - N/A   Clear
10:35 PM 59.4 °F 50.0 °F 71% 30.06 in 10.0 mi East 6.9 mph - N/A   Clear
10:55 PM 58.5 °F 49.3 °F 72% 30.07 in 10.0 mi East 6.9 mph - N/A   Clear
11:15 PM 58.1 °F 49.1 °F 72% 30.07 in 10.0 mi East 4.6 mph - N/A   Clear
11:35 PM 57.7 °F 49.1 °F 73% 30.07 in 10.0 mi East 5.8 mph - N/A   Clear
11:55 PM 57.6 °F 49.3 °F 74% 30.07 in 10.0 mi East 3.5 mph - N/A   Clear